Regional Weather Roundup
Issued by NWS

Home | Current Version | Previous Version | Text Only | Print | Product List | Glossary On
Versions: 1 2 3 4 5 6 7 8 9 10 11 12 13 14 15 16 17 18 19 20 21 22 23 24 25 26 27 28 29 30 31 32 33 34 35 36 37 38 39 40 41 42 43 44 45 46 47 48 49 50
000
ASCA44 KEWX 260420
RWRMX

LATIN AMERICA AND CARIBBEAN REGIONAL WEATHER ROUNDUP
NATIONAL WEATHER SERVICE AUSTIN/SAN ANTONIO TX
1100 PM CDT THU MAY 25 2017

NOTE: "FAIR" INDICATED FEW OR NO CLOUDS BELOW 12,000 FEET WITH NO
SIGNIFICANT WEATHER AND/OR OBSTRUCTIONS TO VISIBILITY.

BAJA CALIFORNIA

CITY           SKY/WX    TMP DP  RH WIND       PRES   REMARKS
LA PAZ         CLEAR     70  55  60 S9        29.88R
MEXICALI       CLEAR     79  30  17 W16       29.62R
S.J. DEL CABO  CLEAR     70  63  78 NE5       29.87R
TIJUANA        MOCLDY    61  48  63 NW6       29.93R

NORTHWESTERN MEXICO

CITY           SKY/WX    TMP DP  RH WIND       PRES   REMARKS
CULIACAN       CLEAR     75  70  83 CALM      29.88R
HERMOSILLO     MOCLDY    82  54  36 W6        29.83R
CD. JUAREZ     MOCLDY    84  37  18 W14       29.78R
LOS MOCHIS       N/A    N/A N/A N/A MISG        N/A

NORTHEASTERN MEXICO

CITY           SKY/WX    TMP DP  RH WIND       PRES   REMARKS
CHIHUAHUA      MOCLDY    82  34  17 W12       29.95R
MONCLOVA         N/A    N/A N/A N/A MISG        N/A
MONTERREY      CLEAR     82  72  69 E14       29.76R
REYNOSA          N/A    N/A N/A N/A MISG        N/A
SALTILLO       CLEAR     75  52  43 CALM      30.03R
TORREON        MOCLDY    95  41  15 W6        29.87R HX  91
CD. VICTORIA     N/A    N/A N/A N/A MISG        N/A

WESTERN MEXICO

CITY           SKY/WX    TMP DP  RH WIND       PRES   REMARKS
AGUASCALIENTES CLEAR     73  41  31 S2        30.15R
COLIMA           N/A    N/A N/A N/A MISG        N/A
DEL BAJIO      PTCLDY    79  50  36 S5        30.20R
GUADALAJARA    CLEAR     75  50  41 W9        30.13R
MAZATLAN       CLEAR     72  68  88 CALM      29.88S
P. VALLARTA    PTCLDY    77  73  88 S2        29.88S
URUAPAN          N/A    N/A N/A N/A MISG        N/A
ZACATECAS      CLEAR     73  27  17 W14       30.21R

CENTRAL MEXICO

CITY           SKY/WX    TMP DP  RH WIND       PRES   REMARKS
CUERNAVACA       N/A    N/A N/A N/A MISG        N/A
MEXICO CITY    PTCLDY    64  52  63 E8        30.32R
MORELIA        MOCLDY    72  57  60 SW7       30.20R
POZA RICA        N/A    N/A N/A N/A MISG        N/A
QUERETARO      MOCLDY    68  57  68 CALM      30.25R
S. LUIS POTOSI CLEAR     75  48  38 SE7       30.14R
TAMPICO        MOCLDY    81  77  89 S14       29.81R
TOLUCA         MOCLDY    54  50  87 E3        30.39F

SOUTHERN MEXICO

CITY           SKY/WX    TMP DP  RH WIND       PRES   REMARKS
ACAPULCO       PTCLDY    82  75  78 W3        29.85R
B. DE HUATULCO   N/A    N/A N/A N/A MISG        N/A
P. ESCONDIDO   MOCLDY    81  75  83 SE7       29.96
VERACRUZ       MOCLDY    84  81  89 E6        29.83R HX  98

YUCATAN PENINSULA

CITY           SKY/WX    TMP DP  RH WIND       PRES   REMARKS
CAMPECHE         N/A    N/A N/A N/A MISG        N/A
CANCUN         MOCLDY    82  82 100 E9        29.93R HX  97
CHETUMAL       MOCLDY    84  77  79 E12       29.89R HX  94
CD. DEL CARMEN MOCLDY    84  82  94 N5        29.84R HAZE    HX 101
COZUMEL        PTCLDY    81  79  94 SE6       29.91R
MERIDA         PTCLDY    84  77  79 E10       29.88R HX  94
MINATITLAN       N/A    N/A N/A N/A MISG        N/A
TAPACHULA      MOCLDY    77  75  94 CALM      29.87R
TUX. GUTIERREZ CLOUDY    75  66  73 CALM      29.95R
VILLAHERMOSA   MOCLDY    82  77  83 E7        29.86R HX  91

CENTRAL AMERICA

CITY           SKY/WX    TMP DP  RH WIND       PRES   REMARKS
MANAGUA        PTCLDY    79  77  94 W5        29.83S

CARIBBEAN

CITY           SKY/WX    TMP DP  RH WIND       PRES   REMARKS
ARUBA          PTCLDY    81  75  83 E15       29.92F
CURACAO        PTCLDY    81  73  78 E9        29.97S
KINGSTON       PTCLDY    84  73  70 SE20      29.97S HX  91
NASSAU         MOCLDY    84  75  74 S6        30.03R HX  92
SAN JUAN       PTCLDY    81  70  69 E8        30.06F
SANTO DOMINGO  PTCLDY    77  73  88 E5        30.03S
ST. CROIX      PTCLDY    79  72  78 NE9       30.05F
ST. MAARTEN    PTCLDY    81  73  78 E9        30.03F
ST. THOMAS     CLOUDY    82  72  69 E7        30.05

$$




USA.gov is the U.S. government's official web portal to all federal, state and local government web resources and services.